FW5810 Weather Reports


time (UTC)temp
C
wind
direction
speed
KPH
gust
KPH
rain 1hr
cm
rain 24hr
cm
rain mn
cm
humidity
%
barometer
mb
20260505173236 19 240 3.2 8.0 0.00 0.00 0.00 58 1008.4
20260505172732 19 263 11.3 16.1 0.00 0.00 0.00 57 1008.6
20260505172229 19 276 11.3 16.1 0.00 0.00 0.00 57 1008.3
20260505171729 19 242 6.4 24.1 0.00 0.00 0.00 57 1008.4
20260505171227 19 227 4.8 16.1 0.00 0.00 0.00 57 1008.7
20260505170723 20 254 16.1 19.3 0.00 0.00 0.00 56 1008.7
20260505170220 20 206 4.8 8.0 0.00 0.00 0.00 56 1008.7
20260505165716 20 264 4.8 22.5 0.00 0.00 0.00 55 1008.6
20260505165212 20 245 16.1 25.7 0.00 0.00 0.00 55 1008.5
20260505164707 20 240 8.0 16.1 0.00 0.00 0.00 55 1008.5
20260505164205 20 228 6.4 25.7 0.00 0.00 0.00 54 1008.4
20260505163703 20 261 3.2 16.1 0.00 0.00 0.00 54 1008.5
20260505163201 20 178 4.8 24.1 0.00 0.00 0.00 52 1008.6
20260505162658 21 234 8.0 17.7 0.00 0.00 0.00 52 1008.6
20260505162155 21 237 4.8 12.9 0.00 0.00 0.00 53 1008.5
20260505161652 20 218 8.0 22.5 0.00 0.00 0.00 53 1008.3
20260505161149 20 248 16.1 24.1 0.00 0.00 0.00 54 1008.2
20260505160647 21 250 11.3 25.7 0.00 0.00 0.00 52 1007.9
20260505160144 21 298 8.0 37.0 0.00 0.00 0.00 53 1007.9
20260505153124 20 269 9.7 25.7 0.00 0.00 0.00 56 1008.5
20260505152620 19 254 6.4 16.1 0.00 0.00 0.00 57 1008.4
20260505152116 19 256 11.3 19.3 0.00 0.00 0.00 57 1008.4
20260505151611 19 262 8.0 29.0 0.00 0.00 0.00 56 1008.2
20260505151109 19 318 8.0 25.7 0.00 0.00 0.00 57 1008.1
20260505150605 19 273 8.0 16.1 0.00 0.00 0.00 59 1008.4
20260505140531 18 237 16.1 17.7 0.00 0.00 0.00 61 1008.0
20260505124944 16 216 3.2 16.1 0.00 0.00 0.00 69 1007.6
20260505124441 16 176 8.0 11.3 0.00 0.00 0.00 69 1007.2
20260505123937 16 172 8.0 12.9 0.00 0.00 0.00 67 1007.6
20260505123433 16 207 6.4 12.9 0.00 0.00 0.00 66 1007.7
20260505122929 16 223 6.4 12.9 0.00 0.00 0.00 67 1007.2
20260505122427 16 266 12.9 16.1 0.00 0.00 0.00 66 1007.4
20260505121924 16 205 8.0 8.0 0.00 0.00 0.00 65 1007.5
20260505121421 16 192 3.2 11.3 0.00 0.00 0.00 65 1007.5
20260505120916 16 261 8.0 17.7 0.00 0.00 0.00 65 1007.7
20260505120413 16 210 4.8 11.3 0.00 0.00 0.00 65 1007.6
20260505115912 16 209 4.8 17.7 0.00 0.00 0.00 64 1007.9
20260505115409 17 223 4.8 17.7 0.00 0.00 0.00 63 1007.7
20260505114907 17 181 8.0 17.7 0.00 0.00 0.00 63 1007.5
20260505114403 17 171 4.8 11.3 0.00 0.00 0.00 64 1007.5
20260505113859 17 126 6.4 11.3 0.00 0.00 0.00 63 1007.5
20260505113356 17 227 4.8 12.9 0.00 0.00 0.00 63 1007.6
20260505112852 17 241 8.0 12.9 0.00 0.00 0.00 62 1007.5
20260505112350 17 285 8.0 17.7 0.00 0.00 0.00 62 1007.4
20260505111845 17 228 6.4 16.1 0.00 0.00 0.00 62 1007.1
20260505111340 17 223 14.5 17.7 0.00 0.00 0.00 62 1007.1
20260505110837 17 227 8.0 11.3 0.00 0.00 0.00 62 1006.9
20260505110334 17 273 16.1 22.5 0.00 0.00 0.00 62 1007.0
20260505101809 17 220 12.9 17.7 0.00 0.00 0.00 61 1006.7
20260505101304 17 215 8.0 12.9 0.00 0.00 0.00 60 1006.5
20260505100801 17 154 9.7 12.9 0.00 0.00 0.00 60 1006.5
20260505100257 17 185 9.7 25.7 0.00 0.00 0.00 60 1006.4
20260505095753 17 153 4.8 11.3 0.00 0.00 0.00 61 1006.5
20260505095251 17 260 4.8 17.7 0.00 0.00 0.00 60 1006.4
20260505094746 17 208 11.3 17.7 0.00 0.00 0.00 60 1006.3
20260505094243 17 173 4.8 8.0 0.00 0.00 0.00 60 1006.3
20260505093739 17 225 4.8 16.1 0.00 0.00 0.00 59 1006.0
20260505093237 17 277 11.3 17.7 0.00 0.00 0.00 59 1006.3
20260505092734 17 123 8.0 19.3 0.00 0.00 0.00 59 1006.1
20260505092232 17 218 17.7 25.7 0.00 0.00 0.00 59 1006.0
20260505091729 17 223 8.0 19.3 0.00 0.00 0.00 59 1006.1
20260505091228 17 243 11.3 17.7 0.00 0.00 0.00 59 1006.1
20260505090725 17 238 4.8 8.0 0.00 0.00 0.00 60 1005.9
20260505090223 17 274 4.8 12.9 0.00 0.00 0.00 58 1006.0
20260505085720 17 251 14.5 25.7 0.00 0.00 0.00 58 1006.0
20260505085218 17 222 6.4 19.3 0.00 0.00 0.00 59 1005.9
20260505084715 17 218 6.4 12.9 0.00 0.00 0.00 59 1005.9
20260505084214 17 229 11.3 17.7 0.00 0.00 0.00 59 1005.8
20260505083710 18 213 4.8 11.3 0.00 0.00 0.00 58 1005.8
20260505083207 18 224 9.7 16.1 0.00 0.00 0.00 58 1005.8
20260505082703 18 213 6.4 16.1 0.00 0.00 0.00 59 1005.7
20260505082201 17 228 16.1 24.1 0.00 0.00 0.00 59 1005.8
20260505081656 17 235 9.7 19.3 0.00 0.00 0.00 59 1005.7
20260505081154 17 231 4.8 22.5 0.00 0.00 0.00 60 1005.7
20260505080651 17 206 9.7 11.3 0.00 0.00 0.00 59 1005.5
20260505080146 17 178 4.8 17.7 0.00 0.00 0.00 59 1005.4
20260505075642 17 187 4.8 11.3 0.00 0.00 0.00 59 1005.3
20260505075139 17 211 14.5 24.1 0.00 0.00 0.00 59 1005.4
20260505074636 17 231 12.9 16.1 0.00 0.00 0.00 60 1005.4
20260505074133 17 209 8.0 17.7 0.00 0.00 0.00 60 1005.2
20260505073631 17 183 6.4 11.3 0.00 0.00 0.00 60 1005.2
20260505073129 17 177 4.8 17.7 0.00 0.00 0.00 59 1005.2
20260505072624 17 250 8.0 16.1 0.00 0.00 0.00 59 1005.2
20260505072121 17 241 11.3 16.1 0.00 0.00 0.00 59 1005.2
20260505071617 17 230 6.4 17.7 0.00 0.00 0.00 59 1005.2
20260505071115 17 180 4.8 17.7 0.00 0.00 0.00 59 1005.1
20260505070612 17 192 6.4 8.0 0.00 0.00 0.00 59 1005.2
20260505070108 17 209 8.0 16.1 0.00 0.00 0.00 59 1005.2
20260505065604 18 261 8.0 24.1 0.00 0.00 0.00 58 1005.2
20260505065101 17 216 11.3 12.9 0.00 0.00 0.00 59 1005.3
20260505064558 18 236 16.1 17.7 0.00 0.00 0.00 59 1005.3
20260505064056 18 211 6.4 19.3 0.00 0.00 0.00 58 1005.3
20260505063553 18 244 17.7 22.5 0.00 0.00 0.00 58 1005.5
20260505063049 18 218 4.8 12.9 0.00 0.00 0.00 59 1005.5
20260505062545 18 240 11.3 17.7 0.00 0.00 0.00 59 1005.4
20260505062043 18 197 6.4 11.3 0.00 0.00 0.00 58 1005.7
20260505061540 18 198 4.8 8.0 0.00 0.00 0.00 58 1005.6
20260505061038 18 245 8.0 17.7 0.00 0.00 0.00 58 1005.6
20260505060535 18 205 8.0 17.7 0.00 0.00 0.00 57 1005.6
20260505060032 18 216 4.8 8.0 0.00 0.00 0.00 58 1005.7
20260505055527 18 207 8.0 12.9 0.00 0.00 0.00 58 1005.9
20260505055024 18 210 6.4 16.1 0.00 0.00 0.00 58 1005.9
20260505054521 18 166 9.7 16.1 0.00 0.00 0.00 58 1005.9
20260505054020 18 258 11.3 12.9 0.00 0.00 0.00 58 1006.2
20260505053516 18 214 4.8 12.9 0.00 0.00 0.00 59 1006.2
20260505053013 17 273 9.7 12.9 0.00 0.00 0.00 60 1006.1
20260505052510 17 215 8.0 11.3 0.00 0.00 0.00 60 1006.2
20260505052008 17 222 4.8 11.3 0.00 0.00 0.00 61 1006.1
20260505051504 17 177 4.8 8.0 0.00 0.00 0.00 60 1006.2
20260505051003 17 220 9.7 12.9 0.00 0.00 0.00 60 1006.4
20260505050500 17 222 6.4 16.1 0.00 0.00 0.00 61 1006.4
20260505041428 17 215 9.7 17.7 0.00 0.00 0.00 60 1006.4
20260505040925 17 223 4.8 16.1 0.00 0.00 0.00 61 1006.6
20260505040423 17 221 4.8 8.0 0.00 0.00 0.00 61 1006.6
20260505035919 17 208 4.8 11.3 0.00 0.00 0.00 60 1006.6
20260505035415 17 210 4.8 11.3 0.00 0.00 0.00 60 1006.6
20260505034912 17 180 3.2 12.9 0.00 0.00 0.00 60 1006.7
20260505034409 17 188 4.8 12.9 0.00 0.00 0.00 60 1006.8
20260505033906 17 172 4.8 12.9 0.00 0.00 0.00 59 1006.7
20260505033403 17 234 12.9 17.7 0.00 0.00 0.00 59 1006.6
20260505032901 17 213 8.0 12.9 0.00 0.00 0.00 59 1006.4
20260505032357 17 172 4.8 12.9 0.00 0.00 0.00 58 1006.5
20260505031854 17 183 4.8 8.0 0.00 0.00 0.00 58 1006.6
20260505031351 17 201 6.4 11.3 0.00 0.00 0.00 58 1006.6
20260505030848 17 166 8.0 16.1 0.00 0.00 0.00 58 1006.7
20260505030344 17 211 8.0 8.0 0.00 0.00 0.00 58 1006.6
20260505025839 17 205 1.6 11.3 0.00 0.00 0.00 58 1006.6
20260505025337 17 180 11.3 12.9 0.00 0.00 0.00 57 1006.7
20260505024836 17 183 3.2 8.0 0.00 0.00 0.00 57 1006.8
20260505024333 17 199 6.4 8.0 0.00 0.00 0.00 57 1006.6
20260505023830 17 168 4.8 8.0 0.00 0.00 0.00 57 1006.8
20260505023327 17 200 3.2 4.8 0.00 0.00 0.00 57 1006.9
20260505022824 17 222 9.7 12.9 0.00 0.00 0.00 56 1007.0
20260505022321 18 213 4.8 11.3 0.00 0.00 0.00 56 1007.0
20260505021819 18 202 3.2 8.0 0.00 0.00 0.00 56 1007.1
20260505021315 18 219 6.4 6.4 0.00 0.00 0.00 56 1007.1
20260505020811 18 214 4.8 6.4 0.00 0.00 0.00 56 1006.9
20260505020307 18 253 6.4 11.3 0.00 0.00 0.00 56 1007.1
20260505015804 18 228 9.7 11.3 0.00 0.00 0.00 55 1006.9
20260505015301 18 208 4.8 8.0 0.00 0.00 0.00 54 1006.9
20260505014758 18 233 4.8 11.3 0.00 0.00 0.00 53 1006.8
20260505014255 18 233 4.8 11.3 0.00 0.00 0.00 53 1006.8
20260505013751 18 217 8.0 12.9 0.00 0.00 0.00 53 1006.7
20260505013248 18 185 4.8 16.1 0.00 0.00 0.00 52 1006.9
20260505012746 18 215 4.8 22.5 0.00 0.00 0.00 52 1006.8
20260505012238 19 234 8.0 16.1 0.00 0.00 0.00 52 1006.8
20260505011733 19 183 6.4 12.9 0.00 0.00 0.00 51 1006.3
20260505011231 19 214 16.1 19.3 0.00 0.00 0.00 51 1006.5
20260505010726 19 193 11.3 24.1 0.00 0.00 0.00 51 1006.3
20260505010223 19 193 11.3 24.1 0.00 0.00 0.00 51 1006.3
20260505005720 19 114 6.4 19.3 0.00 0.00 0.00 51 1006.4
20260505005217 19 197 12.9 12.9 0.00 0.00 0.00 51 1006.4
20260505004714 20 142 12.9 16.1 0.00 0.00 0.00 50 1006.1
20260505004210 20 244 11.3 16.1 0.00 0.00 0.00 50 1006.2
20260505003708 20 228 11.3 17.7 0.00 0.00 0.00 49 1006.1
20260505003206 20 203 4.8 19.3 0.00 0.00 0.00 49 1006.0
20260505002701 20 247 9.7 12.9 0.00 0.00 0.00 49 1005.9
20260505002159 20 218 4.8 8.0 0.00 0.00 0.00 48 1005.8
20260505001656 20 174 11.3 22.5 0.00 0.00 0.00 48 1005.7
20260505001154 20 238 8.0 11.3 0.00 0.00 0.00 47 1005.7
20260505000650 20 186 9.7 22.5 0.00 0.00 0.00 47 1005.7
20260505000148 20 276 11.3 17.7 0.00 0.00 0.00 47 1005.6
20260504235644 20 261 9.7 12.9 0.00 0.00 0.00 47 1005.5
20260504235141 20 213 6.4 11.3 0.00 0.00 0.00 48 1005.5
20260504234638 20 202 6.4 17.7 0.00 0.00 0.00 47 1005.5
20260504234130 21 213 19.3 29.0 0.00 0.00 0.00 46 1005.5
20260504233625 21 202 14.5 24.1 0.00 0.00 0.00 47 1005.3
20260504233121 21 175 9.7 16.1 0.00 0.00 0.00 48 1005.5
20260504232620 21 276 12.9 19.3 0.00 0.00 0.00 46 1005.5
20260504232116 21 237 20.9 29.0 0.00 0.00 0.00 47 1005.4
20260504231613 21 224 4.8 12.9 0.00 0.00 0.00 47 1005.5
20260504231109 21 196 11.3 25.7 0.00 0.00 0.00 46 1005.4
20260504230605 21 263 22.5 35.4 0.00 0.00 0.00 46 1005.6
20260504230104 21 215 11.3 17.7 0.00 0.00 0.00 46 1005.5
20260504225602 21 217 9.7 22.5 0.00 0.00 0.00 46 1005.8
20260504225058 21 242 17.7 22.5 0.00 0.00 0.00 47 1005.7
20260504224555 21 227 6.4 17.7 0.00 0.00 0.00 47 1005.8
20260504224052 21 218 4.8 17.7 0.00 0.00 0.00 48 1005.9
20260504223549 21 206 9.7 11.3 0.00 0.00 0.00 48 1005.8
20260504223044 21 185 8.0 19.3 0.00 0.00 0.00 47 1006.0
20260504222542 21 202 11.3 22.5 0.00 0.00 0.00 47 1006.1
20260504222039 21 265 17.7 24.1 0.00 0.00 0.00 46 1006.0
20260504221536 21 225 9.7 24.1 0.00 0.00 0.00 47 1006.1
20260504221033 21 203 6.4 22.5 0.00 0.00 0.00 47 1006.1
20260504220529 21 215 17.7 22.5 0.00 0.00 0.00 46 1006.2
20260504220026 21 216 4.8 11.3 0.00 0.00 0.00 48 1006.1
20260504215523 21 206 8.0 12.9 0.00 0.00 0.00 47 1006.2
20260504215020 21 219 9.7 30.6 0.00 0.00 0.00 46 1006.1
20260504214516 21 209 6.4 16.1 0.00 0.00 0.00 46 1006.1
20260504214012 22 222 11.3 29.0 0.00 0.00 0.00 45 1006.0
20260504213509 22 231 17.7 29.0 0.00 0.00 0.00 44 1006.0
20260504213007 22 209 11.3 19.3 0.00 0.00 0.00 45 1006.3
20260504212502 22 273 12.9 19.3 0.00 0.00 0.00 45 1006.3
20260504212000 21 264 4.8 6.4 0.00 0.00 0.00 47 1006.2
20260504211456 21 274 8.0 24.1 0.00 0.00 0.00 45 1006.4
20260504210954 21 226 14.5 29.0 0.00 0.00 0.00 45 1006.2
20260504210450 21 227 17.7 19.3 0.00 0.00 0.00 44 1006.4
20260504205947 21 190 14.5 24.1 0.00 0.00 0.00 44 1006.3
20260504205445 21 241 14.5 24.1 0.00 0.00 0.00 45 1006.5
20260504204943 22 264 6.4 24.1 0.00 0.00 0.00 44 1006.2
20260504204441 21 210 9.7 16.1 0.00 0.00 0.00 44 1006.3
20260504203940 21 210 17.7 22.5 0.00 0.00 0.00 43 1006.4
20260504203437 22 236 14.5 19.3 0.00 0.00 0.00 42 1006.6
20260504202933 22 264 8.0 11.3 0.00 0.00 0.00 45 1006.4
20260504202430 22 206 8.0 19.3 0.00 0.00 0.00 43 1006.4
20260504201926 22 147 8.0 17.7 0.00 0.00 0.00 42 1006.5
20260504201424 22 171 11.3 17.7 0.00 0.00 0.00 41 1006.6
20260504200921 22 226 8.0 22.5 0.00 0.00 0.00 43 1006.4
20260504200418 22 213 14.5 24.1 0.00 0.00 0.00 42 1006.6
20260504195915 22 215 9.7 12.9 0.00 0.00 0.00 42 1006.7
20260504195410 22 219 9.7 16.1 0.00 0.00 0.00 45 1006.9
20260504194907 22 213 9.7 17.7 0.00 0.00 0.00 42 1006.7
20260504194403 22 194 12.9 22.5 0.00 0.00 0.00 42 1006.9
20260504193859 22 214 11.3 22.5 0.00 0.00 0.00 45 1006.9
20260504193356 21 201 14.5 19.3 0.00 0.00 0.00 43 1007.1
20260504192855 21 224 14.5 19.3 0.00 0.00 0.00 43 1007.4
20260504192352 21 220 11.3 19.3 0.00 0.00 0.00 45 1007.1
20260504191850 21 212 12.9 24.1 0.00 0.00 0.00 45 1007.4
20260504191348 21 260 16.1 22.5 0.00 0.00 0.00 41 1007.4
20260504190843 21 177 12.9 19.3 0.00 0.00 0.00 44 1007.6
20260504190339 21 187 16.1 24.1 0.00 0.00 0.00 45 1007.6
20260504185836 21 233 4.8 11.3 0.00 0.00 0.00 45 1007.5
20260504185333 21 198 8.0 12.9 0.00 0.00 0.00 43 1007.6
20260504184829 21 261 8.0 29.0 0.00 0.00 0.00 43 1007.7
20260504184326 21 154 8.0 16.1 0.00 0.00 0.00 45 1007.9
20260504183821 21 223 9.7 19.3 0.00 0.00 0.00 44 1007.7
20260504183319 20 207 16.1 25.7 0.00 0.00 0.00 44 1007.8
20260504182817 20 116 17.7 19.3 0.00 0.00 0.00 43 1007.7
20260504182314 20 214 14.5 24.1 0.00 0.00 0.00 43 1007.9
20260504181811 20 277 6.4 22.5 0.00 0.00 0.00 44 1008.0
20260504181308 20 247 12.9 25.7 0.00 0.00 0.00 42 1008.2
20260504180807 21 232 16.1 25.7 0.00 0.00 0.00 43 1008.0
20260504180305 20 182 8.0 24.1 0.00 0.00 0.00 42 1008.2
20260504175803 20 55 8.0 19.3 0.00 0.00 0.00 43 1008.1
20260504175259 20 231 11.3 19.3 0.00 0.00 0.00 42 1008.1
20260504174757 20 310 12.9 25.7 0.00 0.00 0.00 41 1008.2
20260504174255 20 247 14.5 19.3 0.00 0.00 0.00 47 1008.3
20260504173751 20 124 9.7 24.1 0.00 0.00 0.00 42 1008.2